SCP
5 5 5 4 4 6 7 7 6 5 5 6 5 4 3 2 1 1 1 0 0 0 0 0 0 0 0 0 0 0 0 0 0 0 0 0 0 0 0 0 0 0 0
4 5 5 4 3 4 5 5 5 4 5 6 5 4 2 2 1 1 1 0 0 0 0 0 0 0 0 0 0 0 0 0 0 0 0 0 0 0 0 0 0 0 0
3 4 4 3 3 3 4 4 4 4 4 5 4 3 2 1 1 1 1 1 0 0 0 0 0 0 0 0 0 0 0 0 0 0 0 0 0 0 0 0 0 0 0
3 2 2 2 3 3 3 3 4 4 4 4 4 3 2 1 1 1 1 1 1 0 0 0 0 0 0 0 0 0 0 0 0 0 0 0 0 0 0 0 0 0 0
3 2 2 2 2 3 3 3 4 4 3 4 3 3 2 1 1 1 1 1 1 1 0 0 0 0 0 0 0 1 1 1 0 0 0 0 0 0 0 0 0 0 0
2 2 2 3 3 3 3 3 4 4 4 3 3 3 2 2 1 1 1 1 1 1 1 1 1 1 1 1 1 1 1 1 1 0 0 0 0 0 0 0 0 0 0
2 2 3 3 4 4 4 4 4 4 3 3 3 2 2 2 2 1 1 1 1 1 1 1 2 2 1 1 1 2 2 2 1 1 0 0 0 0 0 0 0 0 0
2 2 3 3 4 4 5 6 5 4 4 3 3 2 2 2 2 1 1 1 1 1 2 2 2 2 2 2 2 2 2 2 2 1 1 0 0 0 0 0 0 0 0
1 2 3 4 4 4 6 7 6 5 4 4 3 2 2 2 2 1 1 1 1 1 2 3 3 3 3 3 3 3 3 3 3 2 2 1 1 0 0 0 0 0 0
1 2 3 4 5 4 5 6 5 4 4 4 3 3 2 2 2 2 1 1 1 2 3 3 3 3 4 5 5 4 4 4 4 4 3 2 1 1 1 1 1 1 1
1 2 3 4 5 5 4 4 3 3 3 3 3 3 3 3 3 3 2 2 2 2 3 3 3 4 4 5 5 5 5 5 4 4 3 2 2 2 2 1 1 1 1
1 1 2 4 5 4 4 3 3 3 3 3 3 3 3 3 3 3 3 3 2 2 3 3 3 3 4 4 4 5 4 3 3 3 2 2 2 2 2 2 2 1 1
2 2 2 3 4 4 3 3 3 2 2 3 3 3 3 3 3 3 3 3 3 3 3 3 3 3 3 3 3 4 3 2 2 2 1 2 2 2 2 2 2 2 2
2 2 3 3 3 3 3 3 3 3 3 3 3 4 4 3 3 4 4 3 3 3 3 3 3 3 3 3 3 3 3 2 2 2 1 1 2 2 2 2 3 3 2
2 2 3 4 4 4 4 4 4 4 4 4 4 4 4 4 4 4 4 4 3 3 3 3 3 3 2 2 2 2 2 2 2 2 2 2 2 2 2 2 2 3 3
3 4 6 6 7 7 6 5 5 5 5 5 4 4 5 5 5 4 4 4 4 4 4 3 3 2 2 1 1 2 2 2 2 2 2 2 2 1 1 1 1 1 2
5 7 9 10 9 9 8 7 6 6 6 5 5 5 5 5 5 4 4 4 4 4 4 4 3 3 2 1 0 1 1 2 2 2 2 2 2 1 1 1 1 1 1
7 8 9 9 9 9 8 7 6 6 6 6 6 6 6 6 6 5 5 5 5 5 5 4 4 3 2 1 0 0 1 2 2 2 2 2 2 2 2 2 2 2 2
8 8 8 8 7 7 7 6 6 6 7 7 7 8 8 7 7 7 6 5 5 5 5 4 4 4 3 2 0 0 1 1 2 2 2 2 1 1 1 1 2 2 2
7 7 7 8 8 8 8 8 7 7 8 8 8 9 9 8 8 7 6 6 6 5 4 4 4 4 4 2 1 0 1 2 2 2 1 1 1 1 0 1 1 2 2
7 7 8 9 10 10 10 10 10 9 9 9 8 8 9 8 8 8 8 7 6 5 4 4 4 4 4 3 1 0 1 2 2 2 1 1 0 0 0 0 1 1 1
9 9 10 9 10 11 11 11 10 9 9 8 7 7 8 8 8 9 9 7 6 5 4 4 4 4 3 3 1 0 0 1 1 1 1 1 0 0 0 0 0 0 0
8 8 7 7 7 7 8 7 7 7 7 6 6 7 8 8 8 9 8 6 5 4 3 3 3 3 3 3 2 1 0 0 0 1 1 0 0 0 0 0 0 0 0
5 5 4 4 4 4 4 4 4 4 5 5 6 7 8 8 8 8 7 5 4 3 3 3 3 3 2 2 2 1 1 0 0 0 0 0 0 0 0 0 0 0 0
3 3 3 3 3 2 2 2 3 3 3 4 5 6 6 6 6 6 5 3 2 2 2 2 2 2 2 1 1 1 1 0 0 0 1 1 1 1 1 1 1 1 1
3 3 3 3 3 2 2 2 2 2 3 3 4 4 4 4 4 4 3 2 1 1 1 1 1 1 1 0 0 1 1 0 0 0 1 1 1 1 1 1 1 1 1
Wind_Speed
11 9 9 10 11 11 10 9 9 8 6 5 5 4 4 4 4 4 5 4 3 3 1 3 2 1 3 3 2 2 1 1 0 2 2 2 2 2 1 1 1 1 1
11 10 10 10 10 10 10 10 10 9 7 5 4 4 4 4 4 4 4 4 4 4 3 2 2 2 2 2 2 2 2 2 1 1 2 1 2 0 2 1 1 3 2
14 12 12 11 11 11 11 10 10 10 8 7 5 4 4 2 4 5 4 4 4 3 2 2 1 1 1 2 1 1 1 2 1 2 2 2 2 0 1 1 3 2 1
15 14 13 13 13 12 11 10 10 10 8 8 7 8 6 5 5 5 5 5 4 4 4 3 2 0 0 2 1 2 2 1 2 1 0 1 2 1 1 0 2 2 1
14 15 14 14 13 14 12 11 10 10 9 8 8 7 6 5 5 5 7 6 5 4 4 4 3 2 0 2 2 2 1 2 3 2 1 1 0 2 1 0 1 1 2
13 14 14 14 12 13 13 13 12 10 10 9 8 8 7 5 6 6 7 5 4 4 5 4 3 2 2 2 1 0 1 1 2 3 3 2 1 1 1 1 1 1 1
13 14 14 14 14 14 14 14 13 12 11 10 8 8 6 5 6 6 7 6 5 5 6 5 4 3 2 2 2 2 1 1 0 2 2 3 2 2 2 2 2 2 1
13 13 14 14 14 14 14 14 14 12 12 10 8 8 7 5 5 6 5 5 3 5 7 6 5 4 4 4 3 2 3 2 2 2 1 2 2 2 1 2 2 3 2
14 14 14 14 14 14 13 14 13 12 12 11 9 8 7 6 6 6 5 4 3 5 8 6 6 5 4 3 3 3 2 2 3 3 3 2 2 1 1 1 2 2 3
14 14 13 13 13 13 12 13 13 12 11 11 10 10 8 7 5 6 6 4 4 4 7 6 6 5 5 4 4 3 3 3 3 2 2 2 2 1 1 1 2 2 2
13 13 13 13 12 12 13 12 12 12 11 11 10 9 9 8 7 6 6 5 5 5 6 6 6 6 6 5 5 4 4 5 4 4 4 4 3 2 2 2 2 2 2
12 13 13 13 12 13 13 13 13 12 11 10 9 8 8 8 8 8 7 6 6 6 6 6 6 7 7 6 6 6 5 5 5 5 4 4 4 4 3 3 3 3 3
9 11 12 12 12 11 11 13 13 13 12 11 10 9 8 8 9 8 7 7 7 7 7 7 7 7 6 7 7 7 6 5 6 5 5 5 5 5 4 4 4 3 4
6 8 9 10 10 10 10 11 12 12 13 12 11 10 10 9 8 7 7 8 8 8 7 7 7 7 7 7 7 7 7 6 6 6 6 6 6 6 5 5 5 5 4
6 6 7 8 9 9 9 9 10 10 11 11 11 11 10 9 8 8 7 7 8 9 8 7 8 7 7 8 8 7 8 7 7 7 6 7 9 9 7 6 4 4 4
5 5 5 7 9 9 9 9 9 9 9 10 10 9 9 9 9 8 8 8 8 8 8 8 8 8 9 9 10 7 6 5 6 7 7 8 9 11 13 13 11 8 7
4 3 2 4 5 7 8 9 9 8 9 9 9 9 10 10 9 10 9 9 9 8 7 8 8 8 8 9 10 11 6 6 5 6 6 8 10 9 9 12 15 14 15
5 4 3 3 2 4 6 6 7 7 7 7 7 7 7 8 8 8 8 8 7 7 7 7 7 7 8 10 11 11 8 7 7 7 7 8 8 9 8 8 9 10 11
8 7 6 5 4 3 3 4 3 4 4 4 4 4 5 5 5 6 6 6 6 6 6 6 7 7 7 10 12 11 6 7 8 9 9 10 9 12 12 9 9 9 9
9 9 9 10 9 7 6 6 4 4 3 3 2 3 3 3 4 4 4 4 4 5 5 6 6 7 7 9 12 12 6 7 7 7 8 12 12 12 11 9 9 11 10
11 12 12 12 11 10 9 9 7 6 5 4 4 3 3 3 3 2 2 2 3 4 4 4 5 5 7 9 13 14 7 7 6 6 6 6 8 11 11 10 9 12 10
12 12 11 11 10 10 10 10 8 6 6 6 5 3 3 1 2 2 2 2 2 3 3 4 5 4 5 6 9 13 12 9 6 6 6 5 7 8 9 9 12 14 12
10 10 10 11 10 10 10 10 7 6 5 5 4 4 3 2 2 1 1 1 2 2 3 3 3 3 3 2 6 9 10 11 7 7 9 10 11 11 9 13 15 12 9
9 9 10 10 10 9 9 8 7 6 6 6 4 3 3 2 2 2 1 0 0 1 1 2 2 2 2 2 2 1 3 6 7 7 9 11 14 13 13 13 11 10 11
9 9 9 9 9 9 9 8 7 6 5 4 3 2 1 2 1 0 1 0 0 0 1 2 2 2 2 1 2 2 2 3 3 4 6 8 8 8 8 8 8 8 8
8 9 9 9 8 8 7 7 7 6 5 4 4 3 2 1 1 1 1 2 2 3 4 4 3 2 2 2 3 5 6 7 5 4 7 8 9 10 10 9 8 8 8
Wind_Direction
169 162 159 161 155 150 150 147 145 147 149 150 151 146 152 147 133 135 140 146 137 126 16 99 119 42 74 61 43 9 301 225 36 307 273 193 176 134 112 42 22 70 90
166 166 166 166 161 155 153 151 155 156 160 155 152 156 147 154 142 134 143 154 149 156 161 108 138 94 104 81 43 32 333 333 71 329 305 153 108 322 125 125 125 57 48
166 171 169 168 170 166 165 164 164 160 166 157 154 149 133 149 136 141 158 163 160 160 104 128 103 124 156 128 108 0 349 343 352 40 354 357 54 148 117 101 84 67 33
167 172 173 175 176 175 171 164 164 162 167 164 167 163 168 177 165 161 157 165 170 162 156 163 139 223 56 123 187 112 330 319 313 124 101 60 60 346 77 186 129 163 152
170 173 175 175 177 176 174 167 165 166 168 175 171 177 181 177 161 158 149 166 169 177 175 168 159 176 139 104 69 85 350 334 340 344 344 43 178 258 243 145 176 217 165
169 171 171 172 178 174 171 168 168 171 173 179 177 189 189 176 161 160 155 177 169 182 181 175 166 188 176 139 144 164 171 4 1 347 344 350 347 337 353 344 273 237 153
169 169 169 171 173 176 174 170 169 172 175 181 182 187 188 175 165 171 168 189 178 178 176 175 168 189 168 174 173 186 224 197 332 316 322 341 348 359 359 343 330 334 277
166 169 170 170 173 176 174 169 170 174 178 182 181 181 181 183 180 190 186 194 200 172 160 162 170 189 188 197 176 208 198 184 222 261 306 312 321 336 340 332 336 323 308
168 170 171 173 175 176 175 172 172 175 180 181 177 179 184 198 190 176 202 191 181 151 150 164 175 189 193 198 176 227 223 171 216 234 218 245 267 262 309 320 328 324 323
170 170 172 176 177 176 171 171 173 176 179 180 182 185 189 196 191 185 193 194 171 159 151 171 182 187 186 192 206 229 207 204 225 240 242 249 282 274 263 267 274 272 283
170 171 172 175 175 175 172 170 169 176 181 184 189 188 185 192 194 195 187 184 171 164 166 182 188 190 193 192 200 233 216 205 222 235 226 222 250 276 284 262 251 248 248
168 169 171 172 175 177 176 175 176 179 184 185 185 189 184 188 194 195 189 181 179 180 184 191 196 203 202 195 199 221 226 210 217 229 234 229 231 222 246 268 269 261 248
166 165 165 169 174 176 176 177 180 183 185 184 182 185 185 191 196 196 188 183 183 189 193 197 203 210 209 201 204 213 227 226 224 225 229 231 234 235 234 242 257 267 268
156 159 161 165 170 173 175 176 181 183 184 184 185 187 190 191 196 198 193 189 189 194 199 200 206 210 215 211 208 210 217 227 230 229 229 232 233 232 231 241 240 248 261
156 152 161 165 168 171 173 177 181 181 183 182 186 188 187 188 191 194 195 193 192 201 202 204 209 212 216 219 213 213 218 219 227 231 231 234 236 235 233 242 240 247 248
159 161 161 163 169 172 175 178 181 181 177 179 187 187 184 188 195 196 196 197 198 204 199 204 212 215 222 215 207 207 230 225 228 235 236 240 235 233 231 236 240 239 244
83 84 120 145 159 170 172 175 179 178 178 183 189 187 186 190 194 199 199 203 202 204 205 206 212 219 223 214 201 205 221 239 243 245 246 253 253 236 228 229 233 239 241
43 56 76 83 115 165 170 170 177 179 180 184 188 187 189 194 194 198 201 203 202 204 209 213 217 223 224 209 204 205 219 238 246 247 248 249 257 260 251 245 238 231 234
40 41 49 73 74 68 109 128 135 147 155 172 185 182 180 185 190 205 209 202 202 207 210 213 220 226 226 207 203 199 221 236 245 248 249 247 248 249 248 249 251 251 248
50 52 53 52 55 54 68 92 93 97 110 125 129 122 132 165 182 195 208 201 202 212 217 219 220 226 229 209 203 199 223 240 248 251 251 249 248 251 244 241 248 252 252
58 56 57 53 46 45 59 65 62 57 59 69 85 99 119 141 158 174 179 197 208 213 221 232 230 233 234 217 205 201 217 239 251 258 260 260 254 246 246 243 248 253 258
62 60 60 55 47 48 57 61 51 41 46 51 50 61 74 98 139 141 159 176 211 233 233 244 252 247 242 230 211 205 215 234 252 264 273 289 306 290 271 259 257 259 261
71 67 65 60 49 44 48 53 41 37 46 51 47 39 49 51 41 97 166 191 213 234 253 255 261 267 271 247 217 209 223 237 249 269 282 293 294 293 280 260 257 257 255
75 74 71 66 56 48 48 45 37 35 46 49 44 35 31 37 28 11 22 19 305 273 292 306 306 308 314 4 29 296 256 260 261 273 287 290 280 270 265 266 259 246 244
74 72 73 71 67 59 51 43 35 30 28 31 29 24 32 26 29 6 339 321 46 270 271 300 311 319 323 357 351 324 311 307 306 307 287 279 277 272 267 262 257 251 245
76 73 71 70 67 63 57 46 36 29 22 17 7 349 347 7 317 264 233 209 215 206 215 231 251 279 250 254 282 283 275 274 280 286 276 276 275 275 276 275 272 265 257